DW0000 Weather Reports


time (UTC)temp
F
wind
direction
speed
knots
gust
knots
rain 1hr
in
rain 24hr
in
rain mn
in
humidity
%
barometer
mb
20260831035005 57 272 19.1 32.2 0.00 0.13 0.11 84 1008.5
20260831034506 58 249 20.9 33.9 0.00 0.13 0.11 84 1008.4
20260831031505 59 267 12.2 26.1 0.00 0.13 0.11 87 1008.3
20260831031005 59 253 15.6 30.4 0.00 0.13 0.11 86 1008.2
20260831030505 59 253 14.8 27.8 0.00 0.13 0.11 86 1008.2
20260831024505 58 253 15.6 28.7 0.04 0.13 0.11 90 1008.6
20260831024007 58 265 13.9 26.9 0.04 0.13 0.11 90 1008.7
20260831023505 58 261 14.8 26.9 0.04 0.13 0.11 90 1008.6
20260831022506 57 257 18.2 28.7 0.04 0.13 0.11 91 1008.5
20260831021505 55 268 17.4 33.0 0.04 0.13 0.11 91 1008.4
20260831020005 56 276 13.0 33.9 0.04 0.13 0.11 92 1008.8
20260831015005 56 248 19.1 28.7 0.00 0.09 0.08 87 1009.3
20260831014506 58 241 18.2 32.2 0.00 0.09 0.08 84 1009.3
20260831014006 59 258 17.4 30.4 0.00 0.09 0.08 84 1008.8
20260831012006 60 266 13.9 26.1 0.00 0.09 0.08 80 1008.9
20260831010505 58 250 19.1 33.0 0.00 0.09 0.08 79 1009.4
20260831005005 60 256 19.1 33.0 0.00 0.09 0.08 79 1009.3
20260831004505 61 265 18.2 30.4 0.00 0.09 0.08 78 1009.2
20260831003005 61 249 18.2 34.8 0.00 0.09 0.08 82 1009.3
20260831002506 60 254 22.6 34.8 0.00 0.09 0.08 84 1009.2
20260831002005 60 275 14.8 28.7 0.00 0.09 0.07 85 1009.5
20260831001507 59 281 12.2 28.7 0.00 0.09 0.07 85 1009.3
20260831001004 60 251 19.1 32.2 0.00 0.09 0.07 82 1009.5
20260831000506 61 259 12.2 26.9 0.00 0.09 0.07 82 1009.1
20260831000005 61 264 14.8 30.4 0.00 0.09 0.07 81 1009.3
20260830235505 61 251 15.6 31.3 0.00 0.09 0.07 82 1009.3
20260830235005 61 257 18.2 26.9 0.00 0.09 0.07 81 1009.4
20260830230506 60 263 13.0 26.9 0.00 0.09 0.07 82 1009.6
20260830225505 60 262 15.6 26.1 0.00 0.09 0.07 82 1009.5
20260830223505 59 291 13.0 32.2 0.00 0.09 0.07 86 1009.5
20260830223005 58 258 14.8 26.1 0.00 0.09 0.07 86 1009.6
20260830221505 60 254 13.9 28.7 0.00 0.09 0.07 81 1009.6
20260830221008 59 256 15.6 27.8 0.00 0.09 0.07 81 1009.6
20260830220505 59 247 20.9 28.7 0.00 0.09 0.07 80 1009.7
20260830220005 59 266 13.0 31.3 0.00 0.09 0.07 80 1009.5
20260830215506 59 253 15.6 26.9 0.00 0.09 0.07 81 1009.5
20260830215005 59 257 12.2 25.2 0.00 0.09 0.07 82 1009.7
20260830214006 58 253 15.6 28.7 0.00 0.09 0.07 84 1009.8
20260830213504 58 257 13.0 24.3 0.00 0.09 0.07 85 1009.7
20260830212006 58 251 13.0 26.9 0.00 0.09 0.07 85 1009.8
20260830210506 57 259 11.3 21.7 0.00 0.09 0.07 87 1009.6
20260830205504 57 281 8.7 19.1 0.00 0.09 0.07 89 1009.7
20260830204504 56 252 12.2 20.9 0.01 0.09 0.07 90 1009.8
20260830203004 55 260 13.0 25.2 0.01 0.09 0.07 93 1009.6
20260830202005 55 266 11.3 20.0 0.01 0.09 0.07 94 1009.6
20260830200006 54 272 8.7 19.1 0.01 0.09 0.07 92 1009.7
20260830195504 55 264 13.9 25.2 0.01 0.09 0.07 92 1009.6
20260830195005 55 260 14.8 25.2 0.01 0.09 0.07 90 1009.6
20260830194505 55 257 15.6 25.2 0.00 0.08 0.06 90 1009.5
20260830194007 55 256 12.2 20.0 0.00 0.08 0.06 89 1009.6
20260830193504 55 282 13.9 22.6 0.00 0.08 0.06 89 1009.4
20260830193005 55 252 13.9 25.2 0.00 0.08 0.06 89 1009.4
20260830191504 55 254 12.2 24.3 0.00 0.08 0.06 90 1009.7
20260830190505 54 251 15.6 25.2 0.00 0.08 0.06 90 1009.4
20260830190005 55 271 13.0 26.1 0.00 0.08 0.06 90 1009.4
20260830185506 55 264 17.4 32.2 0.00 0.08 0.06 90 1009.1
20260830184004 55 256 10.4 22.6 0.00 0.08 0.06 89 1008.8
20260830183506 55 256 14.8 25.2 0.00 0.08 0.06 89 1009.0
20260830183005 54 270 14.8 21.7 0.00 0.08 0.06 88 1008.8
20260830181506 54 264 12.2 21.7 0.00 0.08 0.06 88 1008.7
20260830181005 54 269 8.7 15.6 0.00 0.08 0.06 87 1008.7
20260830180006 54 255 12.2 18.2 0.00 0.08 0.06 87 1008.7
20260830174004 54 251 13.9 25.2 0.00 0.08 0.06 85 1008.7
20260830173506 54 244 16.5 28.7 0.00 0.08 0.06 86 1008.8
20260830173004 54 240 17.4 28.7 0.00 0.08 0.06 86 1008.7
20260830172004 54 248 18.2 26.1 0.00 0.08 0.06 88 1008.5
20260830171506 54 248 13.9 27.8 0.00 0.08 0.06 92 1008.4
20260830171005 54 258 12.2 22.6 0.00 0.08 0.06 93 1008.4
20260830165007 54 254 13.0 21.7 0.00 0.08 0.06 94 1008.0
20260830162507 54 254 16.5 27.8 0.02 0.08 0.06 95 1007.8
20260830161506 54 259 12.2 22.6 0.02 0.08 0.06 95 1007.7
20260830161008 54 257 13.9 21.7 0.02 0.08 0.06 95 1007.7
20260830160007 53 257 13.9 24.3 0.02 0.08 0.06 94 1007.8
20260830155507 53 253 12.2 25.2 0.02 0.08 0.06 94 1007.8
20260830154507 54 259 17.4 26.9 0.02 0.08 0.06 95 1007.9
20260830153507 55 234 16.5 27.8 0.01 0.07 0.06 94 1008.1
20260830153006 55 253 15.6 26.9 0.00 0.06 0.04 94 1008.0
20260830151507 54 250 17.4 26.9 0.00 0.06 0.04 94 1008.0
20260830150008 55 254 15.6 24.3 0.04 0.06 0.04 95 1007.9
20260830144006 54 270 11.3 26.1 0.04 0.06 0.04 95 1007.9
20260830142507 54 253 13.9 24.3 0.04 0.06 0.04 94 1008.3
20260830142006 54 258 14.8 26.1 0.04 0.06 0.04 94 1007.9
20260830141506 54 260 14.8 25.2 0.04 0.06 0.04 94 1008.2
20260830140508 55 248 19.1 31.3 0.01 0.04 0.02 94 1008.2
20260830135506 55 253 11.3 26.9 0.00 0.03 0.01 93 1008.4
20260830132506 55 247 17.4 37.4 0.00 0.02 0.00 92 1008.4
20260830132008 55 248 14.8 27.8 0.00 0.02 0.00 92 1008.1
20260830131007 55 258 13.9 21.7 0.00 0.02 0.00 92 1008.2
20260830130007 55 254 13.9 26.1 0.00 0.02 0.00 91 1008.0
20260830125007 55 249 19.1 31.3 0.00 0.02 0.00 92 1008.0
20260830123506 55 259 17.4 25.2 0.00 0.02 0.00 93 1007.8
20260830123006 55 255 12.2 26.9 0.01 0.02 0.00 94 1007.7
20260830121006 54 289 11.3 21.7 0.01 0.02 0.00 94 1007.9
20260830120506 54 259 13.0 20.9 0.01 0.02 0.00 94 1007.9
20260830115506 55 251 13.9 26.1 0.01 0.02 0.02 94 1008.0
20260830115007 54 274 13.9 26.1 0.01 0.02 0.02 93 1007.8
20260830113506 55 239 17.4 27.8 0.01 0.02 0.02 92 1008.1
20260830112506 55 246 18.2 25.2 0.00 0.01 0.01 91 1008.0
20260830111506 56 249 13.9 22.6 0.00 0.01 0.01 90 1007.8
20260830111007 56 243 15.6 33.0 0.00 0.01 0.01 88 1007.9
20260830110506 56 244 21.7 32.2 0.00 0.01 0.01 88 1007.6
20260830110006 56 250 15.6 26.1 0.00 0.01 0.01 88 1007.9
20260830105505 56 242 15.6 25.2 0.00 0.01 0.01 88 1007.8
20260830104506 56 244 19.1 26.1 0.00 0.01 0.01 88 1007.6
20260830102505 55 252 14.8 25.2 0.00 0.02 0.01 90 1007.9
20260830101005 55 249 18.2 25.2 0.00 0.03 0.01 92 1007.7
20260830100506 55 251 18.2 25.2 0.00 0.03 0.01 93 1007.6
20260830100008 55 252 12.2 22.6 0.00 0.04 0.01 93 1007.8
20260830094008 56 248 21.7 33.0 0.00 0.07 0.01 88 1007.6
20260830092508 56 243 21.7 28.7 0.00 0.09 0.00 89 1007.6
20260830090006 56 250 19.1 31.3 0.00 0.14 0.00 90 1007.3
20260830085506 56 249 14.8 34.8 0.00 0.15 0.00 91 1007.2
20260830085005 56 261 14.8 25.2 0.00 0.15 0.00 92 1007.4
20260830084507 56 248 18.2 26.9 0.00 0.16 0.00 91 1007.3
20260830083506 56 246 18.2 33.0 0.00 0.18 0.00 91 1007.1
20260830083006 56 253 17.4 31.3 0.00 0.19 0.00 90 1007.2
20260830081008 56 251 17.4 31.3 0.00 0.24 0.00 91 1006.6
20260830074006 56 257 14.8 28.7 0.00 0.30 0.00 90 1006.6
20260830073505 56 250 18.2 30.4 0.00 0.31 0.00 90 1006.6
20260830073007 56 255 14.8 25.2 0.00 0.33 0.00 90 1006.6
20260830071006 56 247 17.4 32.2 0.00 0.40 0.00 88 1007.0
20260830064005 56 247 17.4 26.9 0.00 0.48 0.00 89 1006.8
20260830063006 56 246 13.0 27.8 0.00 0.51 0.00 89 1006.6
20260830061505 56 246 20.9 33.0 0.00 0.56 0.00 88 1006.6
20260830060506 56 243 15.6 28.7 0.00 0.58 0.00 89 1006.6
20260830060007 56 247 19.1 26.9 0.00 0.59 0.00 89 1006.6
20260830054505 57 252 17.4 28.7 0.00 0.64 0.00 88 1006.4
20260830054007 57 256 14.8 33.9 0.00 0.67 0.00 87 1006.5
20260830053506 57 251 15.6 31.3 0.00 0.69 0.00 88 1006.5
20260830052507 57 246 14.8 26.1 0.00 0.74 0.00 88 1006.4
20260830052006 57 249 16.5 27.8 0.00 0.76 0.00 88 1006.3
20260830051006 57 252 15.6 27.8 0.00 0.81 0.00 88 1006.2
20260830045007 57 248 17.4 26.9 0.00 0.89 0.00 86 1006.2
20260830044506 57 251 17.4 27.8 0.00 0.92 0.00 86 1006.1
20260830042507 59 246 13.9 32.2 0.00 1.01 0.00 82 1006.1
20260830040005 59 256 13.0 24.3 0.00 1.08 0.00 84 1006.4
20260830035507 59 255 14.8 26.9 0.00 1.09 0.00 83 1006.3